User: anonymous   Login
Location: Waldport
(44.4270°N, 124.0680°W)
Time: 06:52:27
(UTC-07:00)
Language:

Cosmos 1023 Rocket - Orbit

View from above orbital plane
View from above orbital plane
View from above satellite
View from above satellite

Ground track
Ground track

The orbit data is extracted from the following two-line orbital elements,

1 10962U 78063B   17085.95126224 +.00000039 +00000-0 +20206-4 0  9990
2 10962 074.0820 010.7290 0026218 293.3767 066.4631 14.41076499033845
Epoch (UTC): 26 March 2017 22:49:49
Eccentricity: 0.0026218
inclination: 74.0820°
perigee height: 736 km
apogee height: 773 km
right ascension of ascending node: 10.7290°
argument of perigee: 293.3767°
revolutions per day: 14.41076499
mean anomaly at epoch: 66.4631°
orbit number at epoch: 3384

The dashed part of the orbit path shows where the satellite is in the earth's shadow,  

DLR